Weather History for Canadian, TX

Change the Weather History Date:

Saturday, May 18, 2013

  Actual Average (KPPA) Record (KPPA)
Temperature  
Mean Temperature 84 °F -  
Max Temperature 99 °F 80 °F 99 °F (1974)
Min Temperature 70 °F 52 °F 35 °F (1976)
Cooling Degree Days 20    
Growing Degree Days 34 (Base 50)    
Moisture  
Dew Point 54 °F    
Average Humidity 43    
Maximum Humidity 94    
Minimum Humidity 10    
Precipitation  
Precipitation 0.00 in - - ()
Sea Level Pressure  
Sea Level Pressure 29.72 in    
Wind  
Wind Speed 13 mph (South)    
Max Wind Speed 30 mph    
Max Gust Speed 37 mph    
Visibility 9 miles    
Events      
Averages and records for this station are not official NWS values.
T = Trace of Precipitation, MM = Missing Value Source: NWS Daily Summary

Daily Weather History Graph

Daily Weather History Graph

Search for Another Location

Airport:

Trip Planner

Search our weather history database for the weather conditions in past years. The results will help you decide how hot, cold, wet, or windy it might be!

Date:

Astronomy

May. 18, 2013 Rise Set
Actual Time 6:33 AM CDT 8:42 PM CDT
Civil Twilight 6:04 AM CDT 9:11 PM CDT
Nautical Twilight 5:29 AM CDT 9:46 PM CDT
Astronomical Twilight 4:51 AM CDT 10:25 PM CDT
Moon 2:00 PM CDT (5/18) 2:13 AM CDT (5/18)
Length of Visible Light 15h 06m
Length of Day
14h 09m
First Quarter, 55% of the Moon is Illuminated
May 18
First Quarter
May 24
Full
May 31
Last Quarter
Jun 8
New
Jun 16
First Quarter

Hourly Weather History & Observations

Time (CDT) Temp. Heat Index Dew Point Humidity Pressure Visibility Wind Dir Wind Speed Gust Speed Precip Events Conditions
12:15 AM 75.2 °F - 71.2 °F 87% 29.84 in 7.0 mi ESE 9.2 mph 23.0 mph N/A   Overcast
12:35 AM 75.2 °F - 71.2 °F 87% 29.83 in 7.0 mi ESE 8.1 mph - N/A   Overcast
12:55 AM 75.2 °F - 71.6 °F 89% 29.82 in 7.0 mi ESE 4.6 mph - N/A   Overcast
1:15 AM 73.9 °F - 70.5 °F 89% 29.82 in 7.0 mi SE 5.8 mph - N/A   Overcast
1:35 AM 73.8 °F - 70.3 °F 89% 29.81 in 5.0 mi ESE 5.8 mph - N/A   Overcast
1:55 AM 73.4 °F - 70.2 °F 90% 29.81 in 5.0 mi ESE 3.5 mph - N/A   Overcast
2:15 AM 72.9 °F - 70.0 °F 91% 29.81 in 5.0 mi East 6.9 mph - N/A   Overcast
2:35 AM 72.5 °F - 69.8 °F 91% 29.81 in 5.0 mi ESE 3.5 mph - N/A   Overcast
2:55 AM 71.6 °F - 69.3 °F 92% 29.79 in 5.0 mi SSE 5.8 mph - N/A   Mostly Cloudy
3:15 AM 71.6 °F - 69.3 °F 92% 29.79 in 5.0 mi SSE 8.1 mph - N/A   Mostly Cloudy
3:35 AM 70.9 °F - 68.9 °F 93% 29.79 in 5.0 mi SSE 9.2 mph - N/A   Scattered Clouds
3:55 AM 70.7 °F - 68.9 °F 94% 29.79 in 4.0 mi SSE 8.1 mph - N/A   Scattered Clouds
4:15 AM 70.2 °F - 68.4 °F 94% 29.80 in 4.0 mi South 6.9 mph - N/A   Scattered Clouds
4:35 AM 70.3 °F - 68.4 °F 93% 29.80 in 5.0 mi South 6.9 mph - N/A   Scattered Clouds
4:55 AM 70.0 °F - 68.2 °F 94% 29.80 in 5.0 mi South 3.5 mph - N/A   Scattered Clouds
5:15 AM 70.0 °F - 68.0 °F 93% 29.79 in 5.0 mi South 4.6 mph - N/A   Clear
5:35 AM 70.2 °F - 68.0 °F 93% 29.79 in 5.0 mi SE 5.8 mph - N/A   Clear
5:55 AM 70.0 °F - 67.8 °F 93% 29.79 in 5.0 mi ESE 6.9 mph - N/A   Clear
6:15 AM 70.9 °F - 66.0 °F 85% 29.78 in 7.0 mi SE 4.6 mph - N/A   Unknown
6:55 AM 87.6 °F - 34.9 °F 15% 29.75 in 10.0 mi SSW 16.1 mph 21.9 mph N/A   Unknown
7:15 AM 86.2 °F - 34.9 °F 16% 29.76 in 10.0 mi SSW 15.0 mph 20.7 mph N/A   Clear
7:35 AM 82.4 °F - 42.4 °F 24% 29.76 in 10.0 mi South 12.7 mph - N/A   Clear
7:55 AM 80.4 °F - 49.5 °F 34% 29.77 in 10.0 mi South 19.6 mph 24.2 mph N/A   Clear
8:15 AM 79.5 °F - 58.3 °F 48% 29.77 in 10.0 mi South 20.7 mph 27.6 mph N/A   Clear
8:35 AM 77.4 °F - 60.6 °F 56% 29.77 in 10.0 mi South 18.4 mph 25.3 mph N/A   Clear
8:55 AM 81.5 °F 81.4 °F 57.2 °F 43% 29.77 in 10.0 mi South 20.7 mph 31.1 mph N/A   Clear
9:15 AM 86.5 °F 84.7 °F 54.1 °F 33% 29.77 in 10.0 mi South 19.6 mph 27.6 mph N/A   Clear
9:35 AM 87.8 °F - 51.3 °F 28% 29.77 in 10.0 mi South 25.3 mph 29.9 mph N/A   Clear
9:55 AM 87.8 °F 85.5 °F 53.1 °F 30% 29.77 in 10.0 mi South 27.6 mph 34.5 mph N/A   Clear
10:15 AM 88.3 °F - 52.9 °F 30% 29.77 in 10.0 mi SSW 21.9 mph 31.1 mph N/A   Clear
10:35 AM 89.1 °F 86.7 °F 53.1 °F 29% 29.76 in 10.0 mi South 27.6 mph 33.4 mph N/A   Clear
10:55 AM 90.5 °F - 52.9 °F 28% 29.76 in 10.0 mi South 23.0 mph 33.4 mph N/A   Clear
11:15 AM 90.7 °F 88.3 °F 53.1 °F 28% 29.76 in 10.0 mi South 24.2 mph 28.8 mph N/A   Clear
11:35 AM 91.2 °F - 52.9 °F 27% 29.75 in 10.0 mi SSW 24.2 mph 33.4 mph N/A   Clear
11:55 AM 92.8 °F - 51.4 °F 24% 29.75 in 10.0 mi SSW 20.7 mph 28.8 mph N/A   Clear
12:15 PM 93.4 °F - 51.4 °F 24% 29.75 in 10.0 mi SSW 18.4 mph 29.9 mph N/A   Clear
12:35 PM 94.6 °F - 50.0 °F 22% 29.74 in 10.0 mi SSW 18.4 mph 26.5 mph N/A   Clear
12:55 PM 96.6 °F - 46.6 °F 18% 29.74 in 10.0 mi SSW 15.0 mph 21.9 mph N/A   Clear
1:15 PM 96.8 °F - 45.3 °F 17% 29.72 in 10.0 mi SSW 15.0 mph 21.9 mph N/A   Clear
1:35 PM 97.7 °F - 44.6 °F 16% 29.71 in 10.0 mi South 16.1 mph 24.2 mph N/A   Clear
1:55 PM 97.9 °F - 43.5 °F 15% 29.70 in 10.0 mi South 18.4 mph 25.3 mph N/A   Clear
2:15 PM 98.4 °F - 42.3 °F 15% 29.70 in 10.0 mi South 16.1 mph 21.9 mph N/A   Clear
2:35 PM 98.6 °F - 42.8 °F 15% 29.69 in 10.0 mi South 15.0 mph 24.2 mph N/A   Clear
2:55 PM 99.1 °F - 40.5 °F 13% 29.68 in 10.0 mi South 17.3 mph 24.2 mph N/A   Clear
3:15 PM 98.8 °F - 43.0 °F 15% 29.67 in 10.0 mi South 20.7 mph 26.5 mph N/A   Clear
3:35 PM 98.4 °F - 42.6 °F 15% 29.67 in 10.0 mi SSE 19.6 mph 26.5 mph N/A   Clear
3:55 PM 99.5 °F - 34.7 °F 10% 29.67 in 10.0 mi SSW 19.6 mph 31.1 mph N/A   Clear
4:15 PM 97.3 °F - 41.7 °F 15% 29.66 in 10.0 mi South 24.2 mph 32.2 mph N/A   Clear
4:35 PM 96.8 °F - 39.9 °F 14% 29.65 in 10.0 mi South 23.0 mph 32.2 mph N/A   Clear
4:55 PM 98.1 °F - 44.1 °F 16% 29.64 in 10.0 mi South 29.9 mph 36.8 mph N/A   Clear
5:15 PM 97.0 °F - 45.7 °F 17% 29.63 in 10.0 mi South 28.8 mph 35.7 mph N/A   Clear
5:35 PM 96.8 °F - 43.9 °F 16% 29.62 in 10.0 mi South 21.9 mph 32.2 mph N/A   Clear
5:55 PM 96.8 °F - 43.7 °F 16% 29.61 in 10.0 mi SSW 25.3 mph 32.2 mph N/A   Clear
6:15 PM 96.1 °F - 44.2 °F 17% 29.61 in 10.0 mi South 25.3 mph 32.2 mph N/A   Clear
6:35 PM 96.4 °F - 44.4 °F 17% 29.60 in 10.0 mi SSW 24.2 mph 28.8 mph N/A   Clear
6:55 PM 95.9 °F - 38.8 °F 14% 29.59 in 10.0 mi South 25.3 mph 32.2 mph N/A   Clear
7:15 PM 95.4 °F - 45.9 °F 18% 29.58 in 10.0 mi South 24.2 mph 27.6 mph N/A   Clear
7:35 PM 94.3 °F - 43.0 °F 17% 29.57 in 10.0 mi South 16.1 mph 24.2 mph N/A   Clear
7:55 PM 90.5 °F - 49.1 °F 24% 29.58 in 10.0 mi South 23.0 mph 29.9 mph N/A   Clear
8:15 PM 88.7 °F - 50.9 °F 27% 29.58 in 10.0 mi SSE 18.4 mph 24.2 mph N/A   Clear
8:35 PM 88.5 °F - 51.4 °F 28% 29.58 in 10.0 mi SSE 21.9 mph 32.2 mph N/A   Clear
8:55 PM 84.4 °F - 50.9 °F 31% 29.59 in 10.0 mi SE 18.4 mph 25.3 mph N/A   Clear
9:15 PM 81.5 °F - 50.5 °F 34% 29.61 in 10.0 mi SE 16.1 mph - N/A   Clear
9:35 PM 79.2 °F - 52.3 °F 39% 29.61 in 10.0 mi SE 15.0 mph 23.0 mph N/A   Clear
9:55 PM 78.3 °F - 51.8 °F 40% 29.63 in 10.0 mi SSE 10.4 mph - N/A   Clear
10:15 PM 79.0 °F - 50.5 °F 37% 29.65 in 10.0 mi South 6.9 mph - N/A   Clear
10:35 PM 77.5 °F - 51.4 °F 40% 29.66 in 10.0 mi SE 10.4 mph - N/A   Clear
10:55 PM 77.5 °F - 52.2 °F 41% 29.67 in 10.0 mi SSE 13.8 mph 19.6 mph N/A   Clear
11:15 PM 77.2 °F - 54.5 °F 45% 29.67 in 10.0 mi SSE 13.8 mph 24.2 mph N/A   Clear
11:35 PM 75.7 °F - 55.4 °F 49% 29.67 in 10.0 mi SSE 11.5 mph 18.4 mph N/A   Clear
11:55 PM 76.1 °F - 55.4 °F 49% 29.67 in 10.0 mi SE 11.5 mph 19.6 mph N/A   Clear